Temp
11 11 11 12 13 13 13 13 13 13 13 13 13 13 12 12 11 11 11 11 11 12 11 11 11 10 10 10 10 9 10 10 10 10 10 10 9 10 10 10 10 11 10 10
11 11 12 12 12 12 13 13 13 13 13 13 12 13 13 13 13 12 12 11 12 11 11 11 11 11 10 10 10 10 9 10 10 9 9 10 10 10 10 10 10 10 11 11
10 11 12 12 12 12 13 12 13 13 13 13 12 13 13 13 12 11 11 11 10 11 12 11 10 11 10 10 10 10 10 10 9 10 10 9 10 10 10 10 10 10 10 10
10 11 11 12 11 12 13 13 13 13 13 13 13 15 14 14 13 12 12 11 11 11 11 11 11 11 11 11 10 10 10 10 10 10 10 10 10 10 10 10 10 10 10 10
10 11 11 11 11 12 12 12 12 12 13 13 12 12 14 14 14 14 14 13 12 11 11 11 11 11 11 11 11 11 11 11 10 10 10 11 10 10 10 10 10 10 10 10
10 11 11 11 11 12 12 12 12 12 12 14 13 13 15 14 15 15 14 13 13 12 12 11 11 11 11 10 10 11 11 11 11 10 10 10 11 10 10 10 10 9 10 10
10 10 11 11 10 11 11 12 13 13 13 15 13 12 14 15 15 15 15 15 14 13 12 11 11 11 11 11 11 10 11 12 12 11 11 10 10 10 10 10 10 10 9 9
9 9 10 10 11 11 11 12 13 12 14 15 13 14 15 15 16 15 15 14 14 14 13 13 12 12 12 11 11 10 11 12 12 12 11 11 11 11 11 10 10 10 10 10
9 10 10 10 10 11 10 11 12 12 12 13 14 13 14 15 16 16 16 16 15 15 14 13 12 13 13 12 12 11 11 12 12 12 11 11 11 11 11 11 10 10 10 10
9 9 10 10 10 10 10 11 11 11 13 13 14 12 15 16 15 15 16 16 16 15 15 14 13 13 13 13 12 11 11 12 12 12 12 11 11 11 11 11 11 11 10 10
8 9 9 9 10 10 10 10 11 12 12 14 15 15 14 15 15 16 16 16 16 16 15 14 15 14 13 13 13 12 11 11 12 13 12 12 11 11 11 11 11 11 11 11
8 9 9 9 9 10 10 11 11 12 11 12 14 15 15 15 16 16 16 17 17 16 15 15 14 13 13 13 13 13 13 12 12 12 12 12 12 11 11 11 11 11 11 11
8 8 9 9 9 10 10 10 11 11 12 12 13 14 14 15 15 16 16 16 17 16 15 15 15 14 14 13 13 13 13 13 12 12 12 11 12 12 11 11 11 11 11 11
6 7 9 10 10 10 9 10 10 11 11 12 12 13 13 14 15 15 15 15 16 16 16 15 15 15 14 14 14 13 13 13 12 12 12 12 12 12 12 11 11 10 11 11
6 7 7 8 9 10 10 10 10 10 11 11 12 12 12 14 15 15 15 15 15 15 15 15 15 15 15 14 14 13 13 13 13 13 12 12 11 11 11 12 11 11 10 10
6 7 7 8 9 10 10 10 10 11 10 10 11 12 12 13 14 14 15 15 15 15 15 15 15 15 14 14 14 13 13 13 13 13 12 11 11 11 11 11 12 11 11 11
5 6 6 8 7 8 8 9 10 10 10 11 10 11 12 13 13 14 14 15 15 15 15 15 15 15 15 14 13 13 13 12 12 12 12 12 12 11 11 11 11 12 11 11
4 4 5 6 6 9 5 7 8 8 9 9 11 12 12 13 13 14 14 14 14 14 14 14 14 14 14 13 13 14 13 12 13 12 12 11 12 12 11 12 11 12 11 11
3 3 4 5 7 4 4 7 7 8 8 9 10 10 11 13 13 13 14 14 13 14 14 14 14 14 13 13 13 12 12 12 12 12 12 12 12 12 12 12 11 11 11 11
3 3 3 4 7 8 7 8 8 8 6 7 7 6 8 10 8 9 11 12 12 12 13 13 13 13 13 13 14 13 12 11 11 12 11 11 11 11 12 11 10 10 10 10
3 3 3 3 5 6 7 7 7 5 5 6 6 5 6 6 7 8 9 11 12 12 12 12 12 12 13 12 12 12 11 11 11 12 10 10 10 11 11 11 11 11 11 10
2 3 2 3 3 5 5 5 5 6 6 7 6 5 5 5 6 6 7 10 10 10 10 11 11 11 12 12 12 11 11 11 11 10 10 10 11 11 11 11 11 11 12 12
0 3 4 3 3 4 5 6 4 4 4 5 3 4 4 5 5 5 5 5 7 6 7 7 8 8 9 10 10 9 9 10 10 11 11 11 11 12 12 12 12 12 12 13
0 2 3 3 3 3 4 3 3 3 3 3 3 2 4 4 4 3 4 4 4 5 6 6 7 7 7 8 8 9 9 9 9 10 11 11 12 12 12 12 12 12 12 12
0 1 1 2 3 4 3 3 3 2 3 2 2 2 2 3 3 4 4 4 4 4 5 5 6 7 7 7 7 7 7 8 8 8 9 10 10 11 11 11 12 12 12 13
0 1 1 0 2 4 3 2 4 3 3 2 1 2 2 2 2 2 2 2 3 3 3 4 4 5 6 8 7 7 6 5 6 6 8 9 9 9 10 10 10 11 12 12
Height
3158 3162 3163 3167 3170 3171 3172 3173 3174 3175 3174 3173 3173 3173 3173 3173 3174 3178 3181 3183 3186 3189 3192 3196 3197 3201 3204 3207 3209 3212 3215 3218 3220 3223 3225 3227 3229 3231 3233 3234 3236 3238 3239 3241
3155 3155 3161 3166 3168 3170 3171 3172 3173 3173 3173 3172 3172 3171 3171 3171 3172 3174 3178 3181 3183 3187 3189 3193 3196 3199 3203 3206 3210 3212 3215 3218 3220 3223 3225 3228 3231 3232 3234 3236 3237 3239 3240 3242
3147 3153 3158 3161 3165 3167 3169 3170 3171 3172 3171 3170 3168 3167 3166 3168 3170 3171 3175 3179 3182 3184 3187 3190 3193 3197 3201 3204 3208 3212 3215 3218 3220 3222 3225 3228 3231 3234 3235 3237 3239 3240 3242 3243
3145 3149 3153 3156 3160 3164 3167 3167 3169 3170 3170 3170 3169 3167 3164 3164 3166 3168 3172 3175 3178 3181 3184 3188 3192 3194 3199 3204 3206 3211 3214 3217 3219 3222 3225 3228 3231 3235 3236 3237 3239 3240 3242 3244
3137 3141 3147 3150 3155 3160 3165 3165 3166 3167 3169 3168 3167 3169 3163 3162 3162 3164 3166 3170 3174 3179 3182 3184 3188 3194 3197 3201 3204 3208 3212 3216 3217 3221 3224 3227 3230 3233 3235 3237 3238 3240 3241 3244
3135 3138 3143 3146 3151 3156 3161 3163 3164 3165 3166 3166 3166 3166 3159 3158 3158 3161 3164 3167 3170 3174 3178 3183 3187 3192 3196 3199 3202 3204 3209 3213 3216 3219 3222 3225 3229 3232 3234 3236 3238 3239 3241 3242
3128 3133 3136 3140 3147 3151 3155 3160 3162 3164 3163 3162 3162 3162 3156 3156 3157 3159 3161 3163 3167 3171 3174 3178 3182 3186 3191 3194 3198 3201 3205 3210 3213 3216 3220 3223 3227 3230 3232 3235 3237 3238 3239 3240
3122 3126 3129 3133 3139 3144 3148 3153 3154 3157 3157 3158 3159 3156 3154 3153 3155 3158 3159 3161 3165 3168 3172 3174 3179 3183 3187 3191 3195 3199 3203 3207 3209 3214 3217 3220 3224 3229 3231 3233 3235 3237 3238 3239
3117 3120 3124 3128 3135 3140 3143 3144 3154 3155 3155 3157 3153 3151 3152 3152 3153 3154 3156 3158 3160 3163 3167 3172 3176 3180 3184 3189 3192 3196 3200 3204 3207 3212 3216 3217 3220 3224 3228 3231 3234 3236 3237 3238
3114 3118 3120 3124 3129 3134 3136 3143 3148 3148 3147 3149 3148 3149 3148 3149 3150 3151 3152 3154 3157 3161 3163 3167 3172 3177 3181 3186 3190 3193 3197 3201 3205 3208 3213 3216 3218 3221 3225 3227 3231 3234 3236 3237
3111 3115 3117 3119 3120 3125 3130 3133 3138 3143 3145 3142 3143 3141 3143 3146 3148 3148 3149 3149 3153 3158 3162 3165 3170 3174 3179 3183 3186 3190 3193 3197 3200 3204 3209 3213 3215 3217 3220 3224 3227 3231 3233 3235
3106 3110 3112 3114 3115 3119 3124 3128 3132 3133 3138 3140 3140 3136 3141 3143 3145 3146 3145 3145 3149 3155 3162 3166 3169 3172 3175 3179 3182 3186 3190 3193 3197 3201 3204 3208 3211 3214 3217 3221 3224 3226 3229 3232
3100 3103 3108 3110 3114 3113 3115 3120 3126 3130 3132 3133 3136 3134 3139 3141 3143 3143 3143 3144 3148 3152 3156 3161 3165 3170 3173 3176 3179 3182 3185 3190 3193 3196 3200 3204 3206 3209 3213 3216 3219 3221 3224 3227
3099 3099 3101 3102 3104 3110 3111 3113 3118 3124 3125 3129 3128 3133 3136 3140 3140 3141 3141 3142 3145 3150 3154 3158 3162 3166 3170 3173 3177 3180 3182 3185 3188 3191 3194 3198 3202 3205 3208 3211 3214 3216 3219 3221
3097 3097 3098 3099 3101 3104 3107 3110 3113 3116 3121 3121 3128 3126 3132 3137 3137 3139 3140 3141 3142 3146 3150 3153 3157 3160 3163 3167 3172 3175 3177 3180 3184 3187 3189 3192 3196 3198 3202 3205 3209 3211 3213 3216
3094 3094 3094 3095 3096 3099 3102 3106 3109 3112 3113 3117 3122 3124 3125 3130 3132 3134 3137 3139 3141 3143 3146 3150 3153 3156 3158 3160 3164 3168 3172 3176 3179 3182 3185 3188 3190 3193 3195 3198 3202 3204 3207 3209
3091 3092 3093 3093 3093 3095 3100 3100 3103 3105 3107 3111 3116 3119 3120 3122 3126 3130 3133 3135 3138 3140 3142 3145 3148 3151 3154 3156 3159 3163 3166 3168 3171 3175 3177 3181 3187 3188 3190 3193 3195 3198 3200 3203
3088 3089 3090 3091 3092 3093 3093 3096 3099 3101 3102 3106 3108 3112 3115 3117 3120 3124 3127 3129 3132 3135 3137 3140 3142 3144 3146 3150 3153 3158 3160 3160 3164 3167 3171 3173 3179 3182 3185 3187 3190 3191 3194 3195
3084 3087 3088 3089 3088 3091 3092 3094 3096 3097 3101 3102 3104 3107 3109 3112 3114 3117 3120 3123 3125 3128 3131 3134 3137 3139 3141 3145 3148 3152 3154 3157 3159 3160 3164 3168 3173 3175 3179 3180 3182 3185 3187 3189
3079 3082 3086 3086 3086 3086 3088 3091 3093 3095 3099 3100 3101 3102 3104 3106 3109 3111 3113 3117 3121 3123 3127 3130 3133 3136 3138 3139 3141 3144 3146 3157 3154 3156 3159 3164 3168 3172 3174 3176 3178 3180 3181 3183
3074 3077 3081 3083 3083 3084 3085 3088 3091 3097 3101 3097 3099 3101 3103 3105 3107 3109 3111 3114 3116 3120 3124 3127 3130 3133 3134 3136 3137 3141 3147 3149 3151 3151 3157 3160 3162 3165 3168 3170 3171 3172 3174 3176
3071 3074 3077 3080 3081 3084 3083 3086 3091 3092 3092 3093 3095 3098 3101 3103 3105 3107 3109 3112 3113 3114 3116 3120 3124 3127 3129 3131 3133 3136 3139 3140 3144 3146 3154 3155 3157 3160 3162 3163 3165 3166 3167 3168
3069 3070 3072 3076 3077 3077 3079 3083 3086 3088 3090 3091 3093 3095 3097 3100 3103 3105 3107 3109 3111 3113 3114 3116 3119 3121 3124 3126 3128 3130 3132 3135 3139 3143 3146 3149 3152 3154 3155 3156 3159 3160 3160 3160
3064 3067 3070 3073 3075 3076 3078 3082 3085 3086 3089 3091 3092 3094 3096 3098 3100 3102 3104 3106 3109 3110 3113 3115 3117 3119 3120 3123 3126 3127 3129 3131 3135 3138 3140 3142 3145 3148 3148 3149 3150 3152 3154 3154
3065 3067 3069 3071 3074 3077 3080 3083 3085 3087 3090 3092 3094 3095 3097 3098 3099 3101 3103 3105 3107 3109 3110 3111 3113 3115 3116 3116 3117 3123 3126 3126 3127 3132 3135 3136 3137 3137 3139 3141 3142 3143 3144 3145
3064 3066 3069 3070 3073 3076 3080 3082 3085 3088 3091 3092 3094 3096 3098 3099 3100 3101 3102 3103 3105 3106 3108 3109 3110 3110 3111 3113 3113 3115 3121 3121 3124 3126 3129 3130 3130 3130 3131 3132 3133 3133 3133 3134
Wind_Speed
28 26 22 23 21 11 7 9 6 5 6 3 4 5 4 9 17 21 23 23 22 21 21 19 20 19 18 16 14 16 13 16 16 12 14 15 17 16 15 16 14 15 15 14
31 30 28 20 21 19 14 12 7 7 7 7 7 9 8 12 12 22 21 24 24 25 26 24 23 23 20 18 14 14 14 13 15 14 17 19 19 19 19 17 16 15 14 13
32 31 31 26 24 21 20 14 10 7 9 9 11 11 10 11 14 22 21 21 22 27 27 28 27 24 23 20 18 14 12 13 13 16 19 20 20 22 20 18 17 16 15 15
32 34 31 31 24 22 20 19 14 12 7 5 10 4 8 9 12 22 24 22 23 26 27 28 28 28 25 22 20 17 15 14 15 18 19 18 18 17 17 17 16 15 16 15
34 30 34 32 30 24 19 18 12 12 10 10 8 6 7 5 15 18 24 22 21 23 27 30 30 28 25 24 22 19 18 17 17 16 20 20 20 19 18 16 15 14 14 15
29 28 27 31 25 26 21 14 7 6 5 13 9 10 9 11 11 12 18 23 22 24 27 27 28 27 26 24 22 20 19 17 17 18 18 19 20 19 17 14 13 11 10 10
29 26 26 25 26 22 23 19 14 9 7 12 5 6 18 11 2 9 8 16 20 19 25 28 31 32 31 29 25 22 21 20 17 18 17 18 21 21 18 15 13 10 8 8
27 23 34 26 22 27 25 27 18 12 10 14 14 10 6 1 11 12 9 9 17 23 23 23 29 32 32 30 26 22 21 21 19 17 16 16 20 22 20 18 15 12 11 10
21 30 22 32 24 22 27 28 24 12 13 10 9 15 18 12 7 9 9 13 18 22 24 23 24 31 31 30 28 24 21 20 19 18 18 18 20 21 21 19 17 15 14 12
16 11 26 17 27 31 24 27 22 18 15 15 13 11 15 11 1 3 5 14 20 20 23 24 27 28 28 27 25 24 21 19 17 19 19 19 20 21 22 24 20 17 16 13
23 17 12 24 31 31 27 24 26 24 17 16 11 15 17 18 16 10 10 8 21 25 21 25 26 25 25 26 25 23 23 22 21 20 21 21 22 23 23 24 24 22 20 17
22 19 18 18 21 30 30 31 29 24 18 21 22 30 6 10 10 10 10 8 24 23 24 21 23 25 27 27 24 22 22 23 21 20 21 24 24 23 24 24 25 28 25 22
21 18 18 17 18 22 37 33 30 25 26 29 22 23 21 20 15 13 9 9 23 21 21 23 25 22 22 22 23 23 22 22 24 23 21 22 24 25 24 25 24 28 29 27
10 9 22 23 26 21 15 31 37 33 26 24 27 31 27 14 14 15 9 13 19 21 19 17 18 20 22 21 18 21 19 21 24 26 26 26 23 23 26 25 26 27 30 31
8 8 13 21 19 20 23 19 22 35 36 33 31 31 27 24 20 12 11 14 20 22 19 17 19 19 24 29 26 22 25 21 18 20 24 25 26 25 25 28 28 27 29 31
10 7 10 10 15 22 23 20 20 24 27 31 28 31 32 35 31 26 18 16 19 20 18 18 19 18 23 26 27 30 28 26 25 23 19 17 23 27 27 27 29 31 31 32
10 9 8 8 10 16 12 20 20 23 29 29 27 24 30 31 33 32 25 23 25 25 21 18 15 16 18 26 26 28 26 31 33 30 26 25 19 15 25 28 29 31 33 32
11 8 7 3 12 10 7 15 16 17 21 24 28 28 31 33 32 32 31 26 27 28 26 20 16 17 22 22 20 24 20 33 32 34 31 29 25 21 24 18 27 31 32 34
14 9 5 4 10 8 8 14 17 17 11 12 20 27 28 33 34 34 33 30 30 31 28 23 19 18 20 22 19 21 24 23 26 30 34 32 23 23 26 23 26 27 30 32
21 16 11 9 6 8 13 16 18 16 8 10 10 14 20 24 26 31 33 31 30 31 31 26 23 22 22 19 23 29 29 20 20 20 25 27 28 28 29 25 28 28 27 27
20 19 18 10 6 8 15 19 17 10 8 13 11 13 14 18 22 27 30 29 31 34 33 29 26 26 26 22 22 23 26 22 17 20 16 20 24 27 26 27 26 26 27 29
13 13 9 12 7 7 15 19 15 14 14 14 11 15 20 21 16 19 26 29 33 32 31 34 33 31 31 28 27 26 25 26 32 34 28 18 23 26 28 29 29 27 23 23
10 15 15 16 12 12 20 20 20 18 16 16 12 10 12 20 23 17 17 23 29 28 25 25 25 26 26 28 27 26 24 20 22 24 28 25 23 26 24 26 27 30 30 29
12 13 11 12 14 17 19 19 19 21 18 15 12 12 15 13 13 14 13 13 19 25 25 22 20 20 19 16 15 16 17 17 17 19 21 22 24 23 20 20 21 24 32 32
12 12 13 11 16 14 18 20 25 18 13 14 12 9 8 10 11 11 11 13 16 19 19 26 30 26 22 19 18 15 13 13 13 15 19 20 20 20 20 20 20 21 22 23
10 13 13 17 22 17 19 20 18 18 16 11 9 10 11 10 11 11 12 10 10 14 18 22 23 27 34 37 34 28 16 6 6 7 14 19 19 19 19 19 21 22 24 27
Wind_Direction
209 207 203 204 199 219 229 196 233 318 7 317 285 292 272 190 196 197 196 198 187 180 181 182 172 172 165 168 174 169 175 171 166 158 168 172 165 158 157 153 159 158 158 160
211 212 215 219 207 216 228 223 245 287 345 338 300 287 255 217 202 208 209 204 189 181 186 185 182 180 180 172 176 179 189 182 178 171 168 168 167 161 158 157 153 148 144 147
208 211 213 217 205 211 224 227 238 270 316 320 321 293 273 227 216 206 202 206 195 193 188 188 189 185 184 186 182 181 188 198 191 181 172 177 175 168 165 160 158 157 159 159
218 218 215 219 213 214 224 237 245 259 301 307 321 297 287 271 217 198 202 208 207 196 198 193 193 188 189 187 187 188 192 195 199 194 184 181 180 176 173 170 171 168 168 168
215 220 216 224 218 213 224 242 253 248 264 295 281 268 266 284 224 211 210 209 208 209 206 200 194 196 186 189 189 190 193 196 200 203 196 193 190 183 184 182 181 177 179 181
215 220 214 218 220 221 221 218 188 205 230 262 260 237 267 245 257 231 216 212 211 206 206 205 202 194 190 189 190 193 196 200 204 201 203 198 201 197 194 189 187 178 182 184
210 211 213 217 211 210 209 209 221 231 223 239 264 245 245 259 221 175 205 219 206 202 204 205 200 194 191 192 192 193 199 200 206 207 204 207 213 206 200 196 202 188 194 202
204 212 213 209 210 210 204 211 214 216 221 240 243 246 252 126 200 235 234 227 217 214 208 198 199 199 197 194 192 195 202 204 203 214 200 203 208 208 206 202 202 204 210 208
207 221 217 222 217 212 209 211 218 228 224 237 230 252 258 248 246 226 242 215 204 204 206 204 197 200 201 201 197 195 200 207 210 211 215 199 205 209 209 206 210 210 216 217
211 209 216 219 214 217 214 212 202 208 213 223 228 250 235 188 278 269 302 231 207 187 186 190 194 199 199 202 203 195 198 209 215 218 218 212 203 208 214 210 211 217 224 226
214 215 214 213 212 209 207 211 211 219 221 221 230 241 240 246 272 285 286 251 204 201 191 187 186 190 195 198 201 200 199 205 210 214 220 216 211 207 211 214 213 216 221 225
209 214 217 207 212 212 214 215 208 209 201 220 232 240 222 234 254 276 284 233 192 200 206 195 190 192 195 195 195 204 209 211 212 215 218 220 217 214 213 215 220 220 219 225
195 207 204 223 223 212 215 210 208 209 218 218 221 229 232 245 265 292 277 221 191 190 191 205 204 201 194 196 202 208 211 219 219 218 222 223 220 220 220 215 218 219 222 225
198 219 210 215 224 211 203 213 217 217 220 214 222 235 236 246 251 270 269 200 199 198 200 204 205 207 209 206 204 206 208 216 222 222 224 225 223 221 223 223 222 223 223 228
216 220 220 224 223 211 217 217 216 222 226 228 231 240 239 229 242 247 270 222 195 194 200 207 209 208 212 206 211 207 205 210 220 223 225 230 230 223 224 227 227 226 229 230
229 222 214 216 211 211 218 219 229 226 223 226 229 239 244 244 243 252 249 237 204 201 202 202 209 219 209 206 205 203 210 216 219 223 224 233 235 234 230 230 230 229 228 230
227 221 215 201 190 189 194 210 213 225 223 219 221 224 234 238 238 244 246 241 241 242 237 230 230 227 227 217 210 209 218 216 215 219 219 239 251 253 243 239 237 235 232 231
217 209 212 212 159 195 196 199 200 208 223 218 216 215 225 231 235 237 240 238 233 227 227 227 232 242 229 215 219 215 237 215 218 224 224 217 230 229 244 238 246 241 239 236
223 225 228 213 196 170 183 190 196 200 208 218 226 224 223 224 229 230 231 233 226 221 225 222 219 215 207 214 202 207 212 212 212 216 222 222 227 232 221 227 239 241 243 243
210 213 204 206 198 200 206 214 211 215 219 226 214 227 227 228 227 227 225 222 225 225 219 220 215 211 211 208 222 238 255 224 230 224 224 227 225 226 231 249 239 237 246 254
201 206 209 220 208 211 201 210 209 194 210 223 231 220 234 244 234 237 227 218 223 226 227 231 229 221 225 224 216 217 220 212 197 205 209 224 225 229 232 235 238 239 249 258
182 175 188 202 201 203 200 197 190 204 219 236 225 216 220 232 238 248 238 228 226 228 229 232 233 232 228 221 221 219 219 221 227 219 229 228 230 228 229 231 227 228 234 248
183 188 189 188 200 193 184 196 191 200 213 219 217 192 211 223 236 227 236 240 236 232 232 230 229 232 234 238 234 228 220 217 215 213 217 224 236 241 234 237 240 241 241 246
170 172 181 159 193 181 182 189 175 187 197 201 220 209 172 188 199 221 221 226 239 231 226 221 212 202 199 200 212 214 209 210 221 225 223 219 220 230 234 232 235 240 245 253
179 176 181 188 183 175 178 183 175 174 178 195 193 184 173 169 165 174 182 204 211 217 224 228 226 216 209 191 191 211 214 218 225 248 244 238 233 237 242 248 251 254 260 267
206 204 188 199 185 189 198 196 205 194 198 206 185 183 177 179 184 179 170 174 202 217 223 227 223 221 221 229 215 204 208 215 233 236 249 248 249 249 251 256 261 263 270 275